Location: Unspecified
(0.0000°N, 0.0000°E)
Time: 06:07:44
(UTC+00:00)

Courier 1B - Pass Details

Date: 28 September 2023
Orbit: 962 x 1208 km, 28.3° (Epoch: 06 December)

Event Time Altitude Azimuth Distance (km) Brightness Sun altitude
Rises 07:01:36 0° 223° (SW) 3,700 10.2 17.7°
Reaches altitude 10° 07:04:30 10° 214° (SSW) 2,780 9.6 18.4°
Maximum altitude 07:10:32 34° 151° (SSE) 1,657 9.4 19.9°
Drops below altitude 10° 07:16:52 10° 88° (E) 2,933 12.2 21.5°
Sets 07:19:59 0° 79° (E) 3,932 12.0 22.3°
